Sauk Centre, MN

2:56 AM CDT on October 14, 2019 (GMT -0500)
Sauk Centre

Weather History for KD39 - August, 2019

Change the Weather History Date:

Saturday, August 17, 2019

  Actual Average (KGHW) Record (KGHW)
Temperature  
Mean Temperature 68 °F -  
Max Temperature 80 °F 80 °F 98 °F (1988)
Min Temperature 55 °F 58 °F 46 °F (2012)
Cooling Degree Days 2    
Growing Degree Days 18 (Base 50)    
Moisture  
Dew Point 61 °F    
Average Humidity 78    
Maximum Humidity 98    
Minimum Humidity 51    
Precipitation  
Precipitation 0.38 in - - ()
Sea Level Pressure  
Sea Level Pressure 29.78 in    
Wind  
Wind Speed 6 mph (SSE)    
Max Wind Speed 20 mph    
Max Gust Speed 31 mph    
Visibility 10 miles    
Events Rain , Thunderstorm    
Averages and records for this station are not official NWS values.
T = Trace of Precipitation, MM = Missing Value Source: NWS Daily Summary

Daily Weather History Graph

Daily Weather History Graph

Search for Another Location

Airport or City:

Astronomy

Aug. 17, 2019 Rise Set
Actual Time 6:22 AM CDT 8:24 PM CDT
Civil Twilight 5:49 AM CDT 8:56 PM CDT
Nautical Twilight 5:10 AM CDT 9:36 PM CDT
Astronomical Twilight 4:26 AM CDT 10:19 PM CDT
Moon 9:47 PM CDT (8/17) 8:14 AM CDT (8/17)
Length of Visible Light 15h 06m
Length of Day
14h 02m
Waning Gibbous, 96% of the Moon is Illuminated
Aug 17
Waning Gibbous
Aug 23
Last Quarter
Aug 30
New
Sep 5
First Quarter
Sep 13
Full

Hourly Weather History & Observations

Time (CDT) Temp. Heat Index Dew Point Humidity Pressure Visibility Wind Dir Wind Speed Gust Speed Precip Events Conditions
12:15 AM 60.1 °F - 57.4 °F 91% 29.86 in 10.0 mi South 3.5 mph - N/A   Clear
12:36 AM 60.8 °F - 57.6 °F 89% 29.85 in 10.0 mi Calm Calm - N/A   Clear
12:55 AM 60.8 °F - 57.2 °F 88% 29.86 in 10.0 mi Calm Calm - N/A   Clear
12:56 AM 60.8 °F - 57.2 °F 88% 29.86 in 10.0 mi Calm Calm - N/A   Clear
1:15 AM 59.4 °F - 56.3 °F 90% 29.86 in 10.0 mi South 3.5 mph - N/A   Clear
1:19 AM 59.4 °F - 56.3 °F 90% 29.86 in 10.0 mi South 3.5 mph - N/A   Clear
1:37 AM 59.4 °F - 56.3 °F 90% 29.86 in 10.0 mi South 3.5 mph - N/A   Clear
1:55 AM 59.5 °F - 56.3 °F 89% 29.85 in 10.0 mi Calm Calm - N/A   Clear
2:15 AM 59.9 °F - 56.3 °F 88% 29.85 in 10.0 mi Calm Calm - N/A   Clear
2:16 AM 59.9 °F - 56.3 °F 88% 29.85 in 10.0 mi South 3.5 mph - N/A   Clear
2:35 AM 59.4 °F - 56.3 °F 90% 29.84 in 10.0 mi SSE 3.5 mph - N/A   Clear
2:36 AM 59.4 °F - 56.3 °F 90% 29.84 in 10.0 mi Calm Calm - N/A   Clear
2:55 AM 60.1 °F - 57.0 °F 90% 29.83 in 10.0 mi Calm Calm - N/A   Clear
2:59 AM 60.3 °F - 57.2 °F 90% 29.82 in 10.0 mi Calm Calm - N/A   Clear
3:17 AM 59.2 °F - 56.3 °F 90% 29.81 in 10.0 mi SE 3.5 mph - N/A   Clear
3:35 AM 58.1 °F - 56.3 °F 94% 29.80 in 10.0 mi SSE 5.8 mph - N/A   Clear
3:55 AM 58.3 °F - 56.5 °F 94% 29.79 in 10.0 mi SE 4.6 mph - N/A   Clear
4:15 AM 58.1 °F - 56.3 °F 94% 29.78 in 10.0 mi SE 3.5 mph - N/A   Clear
4:16 AM 58.1 °F - 56.3 °F 94% 29.78 in 10.0 mi SE 3.5 mph - N/A   Clear
4:39 AM 57.9 °F - 56.3 °F 94% 29.76 in 10.0 mi Calm Calm - N/A   Clear
4:56 AM 58.8 °F - 57.0 °F 94% 29.75 in 10.0 mi Calm Calm - N/A   Clear
5:15 AM 56.3 °F - 55.0 °F 96% 29.75 in 10.0 mi Calm Calm - N/A   Clear
5:36 AM 55.2 °F - 54.0 °F 96% 29.78 in 10.0 mi SSE 5.8 mph - N/A   Clear
5:55 AM 56.3 °F - 55.6 °F 97% 29.81 in 10.0 mi SSE 6.9 mph - N/A   Clear
5:56 AM 56.3 °F - 55.8 °F 98% 29.81 in 10.0 mi SSE 6.9 mph - N/A   Clear
6:15 AM 57.4 °F - 56.7 °F 97% 29.82 in 10.0 mi SSE 5.8 mph - N/A   Clear
6:37 AM 59.2 °F - 57.9 °F 96% 29.84 in 10.0 mi South 9.2 mph - N/A   Clear
6:56 AM 60.8 °F - 58.6 °F 93% 29.84 in 10.0 mi South 5.8 mph - N/A   Clear
7:15 AM 61.7 °F - 59.2 °F 91% 29.84 in 10.0 mi South 6.9 mph - N/A   Clear
7:16 AM 61.7 °F - 59.2 °F 91% 29.84 in 10.0 mi South 6.9 mph - N/A   Clear
7:35 AM 61.9 °F - 59.5 °F 92% 29.84 in 10.0 mi South 6.9 mph - N/A   Clear
7:36 AM 62.1 °F - 59.5 °F 91% 29.84 in 10.0 mi SSE 5.8 mph - N/A   Clear
7:58 AM 63.5 °F - 60.8 °F 91% 29.83 in 10.0 mi South 5.8 mph - N/A   Clear
8:16 AM 64.4 °F - 61.0 °F 89% 29.83 in 10.0 mi South 3.5 mph - N/A   Clear
8:35 AM 66.2 °F - 61.7 °F 85% 29.82 in 10.0 mi South 4.6 mph - N/A   Clear
8:36 AM 66.4 °F - 61.7 °F 85% 29.82 in 10.0 mi South 5.8 mph - N/A   Clear
8:55 AM 68.0 °F - 62.2 °F 82% 29.82 in 10.0 mi South 6.9 mph - N/A   Clear
8:56 AM 68.0 °F - 62.2 °F 82% 29.82 in 10.0 mi South 8.1 mph - N/A   Clear
9:15 AM 69.3 °F - 63.0 °F 80% 29.82 in 10.0 mi South 8.1 mph - N/A   Clear
9:37 AM 70.2 °F - 62.8 °F 77% 29.82 in 10.0 mi South 11.5 mph 16.1 mph N/A   Clear
9:55 AM 71.1 °F - 62.6 °F 75% 29.82 in 10.0 mi South 9.2 mph - N/A   Clear
10:16 AM 72.3 °F - 62.2 °F 70% 29.82 in 10.0 mi South 15.0 mph 19.6 mph N/A   Clear
10:35 AM 73.4 °F - 62.4 °F 68% 29.82 in 10.0 mi South 11.5 mph - N/A   Clear
10:36 AM 73.4 °F - 62.4 °F 68% 29.82 in 10.0 mi South 10.4 mph - N/A   Clear
10:55 AM 73.6 °F - 61.9 °F 67% 29.82 in 10.0 mi South 13.8 mph 18.4 mph N/A   Clear
11:17 AM 75.0 °F - 62.6 °F 65% 29.82 in 10.0 mi SSW 11.5 mph - N/A   Clear
11:35 AM 75.4 °F - 62.4 °F 64% 29.82 in 10.0 mi South 16.1 mph - N/A   Clear
11:55 AM 76.5 °F - 61.7 °F 60% 29.82 in 10.0 mi SSW 11.5 mph - N/A   Clear
11:56 AM 76.5 °F - 61.9 °F 61% 29.82 in 10.0 mi SSW 10.4 mph - N/A   Clear
12:15 PM 77.5 °F - 62.6 °F 60% 29.81 in 10.0 mi South 10.4 mph - N/A   Clear
12:16 PM 77.7 °F - 62.6 °F 60% 29.81 in 10.0 mi South 10.4 mph - N/A   Clear
12:37 PM 78.1 °F - 60.6 °F 55% 29.80 in 10.0 mi SSW 15.0 mph 18.4 mph N/A   Clear
12:56 PM 79.0 °F - 61.7 °F 55% 29.79 in 10.0 mi South 10.4 mph - N/A   Clear
1:15 PM 79.9 °F - 62.1 °F 54% 29.78 in 10.0 mi SSW 9.2 mph - N/A   Clear
1:16 PM 79.9 °F - 62.1 °F 54% 29.78 in 10.0 mi South 9.2 mph - N/A   Clear
1:35 PM 80.1 °F 81.0 °F 60.6 °F 51% 29.78 in 10.0 mi South 11.5 mph - N/A   Clear
1:36 PM 79.9 °F - 60.6 °F 52% 29.78 in 10.0 mi South 12.7 mph 18.4 mph N/A   Clear
1:58 PM 80.8 °F 81.9 °F 62.1 °F 53% 29.78 in 10.0 mi South 12.7 mph - N/A   Clear
2:36 PM 80.1 °F 81.1 °F 61.7 °F 53% 29.78 in 10.0 mi South 9.2 mph - N/A   Clear
2:55 PM 80.4 °F 81.5 °F 61.7 °F 53% 29.78 in 10.0 mi South 11.5 mph - N/A   Scattered Clouds
2:56 PM 80.4 °F 81.5 °F 61.9 °F 53% 29.78 in 10.0 mi South 12.7 mph 18.4 mph N/A   Scattered Clouds
3:18 PM 79.2 °F - 62.8 °F 57% 29.77 in 7.0 mi SSE 12.7 mph 19.6 mph N/A   Mostly Cloudy
3:36 PM 78.8 °F - 63.3 °F 59% 29.77 in 10.0 mi SSE 11.5 mph - N/A   Mostly Cloudy
3:55 PM 79.9 °F - 63.1 °F 56% 29.77 in 10.0 mi South 12.7 mph 18.4 mph N/A   Scattered Clouds
3:56 PM 79.7 °F - 63.0 °F 56% 29.77 in 10.0 mi South 11.5 mph 18.4 mph N/A   Scattered Clouds
4:15 PM 79.9 °F - 63.5 °F 57% 29.76 in 10.0 mi SSE 12.7 mph - N/A   Clear
4:16 PM 79.9 °F - 63.7 °F 58% 29.76 in 10.0 mi SSE 13.8 mph - N/A   Clear
4:39 PM 79.9 °F - 63.7 °F 58% 29.75 in 10.0 mi SSE 13.8 mph - N/A   Scattered Clouds
4:56 PM 79.7 °F - 64.2 °F 59% 29.74 in 10.0 mi SSE 12.7 mph 19.6 mph N/A   Scattered Clouds
5:15 PM 79.3 °F - 63.1 °F 57% 29.73 in 10.0 mi SSE 13.8 mph 23.0 mph N/A   Clear
5:16 PM 79.3 °F - 63.3 °F 58% 29.73 in 10.0 mi SSE 15.0 mph 23.0 mph N/A   Clear
5:35 PM 78.6 °F - 64.0 °F 61% 29.71 in 10.0 mi SSE 12.7 mph - N/A   Clear
5:36 PM 78.8 °F - 63.9 °F 60% 29.71 in 10.0 mi SSE 13.8 mph - N/A   Clear
5:55 PM 78.8 °F - 63.7 °F 60% 29.70 in 10.0 mi SE 17.3 mph 21.9 mph N/A   Scattered Clouds
5:59 PM 78.4 °F - 63.1 °F 59% 29.71 in 10.0 mi SSE 15.0 mph 21.9 mph N/A   Scattered Clouds
6:17 PM 77.9 °F - 62.2 °F 58% 29.71 in 10.0 mi SSE 15.0 mph 21.9 mph N/A   Clear
6:35 PM 76.8 °F - 63.1 °F 63% 29.71 in 10.0 mi SSE 11.5 mph - N/A   Clear
6:55 PM 74.3 °F - 62.6 °F 67% 29.71 in 10.0 mi SSE 9.2 mph 16.1 mph N/A   Clear
6:56 PM 74.3 °F - 62.6 °F 67% 29.71 in 10.0 mi SSE 10.4 mph 16.1 mph N/A   Clear
7:15 PM 73.4 °F - 62.8 °F 69% 29.70 in 10.0 mi SE 8.1 mph - N/A   Clear
7:20 PM 73.4 °F - 63.0 °F 70% 29.70 in 10.0 mi SE 5.8 mph - N/A   Clear
7:37 PM 71.6 °F - 63.5 °F 76% 29.72 in 10.0 mi SSE 4.6 mph - N/A   Clear
7:56 PM 70.5 °F - 63.5 °F 78% 29.72 in 10.0 mi SE 5.8 mph - N/A   Clear
8:15 PM 70.0 °F - 63.5 °F 80% 29.71 in 10.0 mi SE 5.8 mph - N/A   Clear
8:16 PM 69.8 °F - 63.5 °F 80% 29.71 in 10.0 mi SE 5.8 mph - N/A   Clear
8:35 PM 69.3 °F - 63.5 °F 82% 29.72 in 10.0 mi SE 4.6 mph - N/A   Clear
8:40 PM 69.3 °F - 63.5 °F 82% 29.72 in 10.0 mi SE 5.8 mph - N/A   Clear
8:57 PM 70.0 °F - 63.0 °F 78% 29.74 in 10.0 mi SSE 5.8 mph - N/A   Scattered Clouds
9:15 PM 68.9 °F - 63.0 °F 81% 29.77 in 10.0 mi West 19.6 mph 28.8 mph N/A   Overcast
9:35 PM 66.2 °F - 59.4 °F 79% 29.78 in 10.0 mi NW 13.8 mph 31.1 mph N/A   Overcast
9:36 PM 65.8 °F - 59.5 °F 80% 29.77 in 10.0 mi NW 12.7 mph 24.2 mph N/A   Overcast
9:57 PM 62.6 °F - 60.8 °F 94% 29.77 in 1.8 mi Calm Calm - 0.25 in Rain , Thunderstorm Heavy Thunderstorms and Rain
10:15 PM 61.9 °F - 60.8 °F 96% 29.77 in 7.0 mi ENE 4.6 mph - 0.04 in Rain , Thunderstorm Rain
10:16 PM 61.9 °F - 60.8 °F 96% 29.77 in 7.0 mi ENE 4.6 mph - 0.04 in Rain , Thunderstorm Rain
10:35 PM 62.2 °F - 61.2 °F 96% 29.76 in 10.0 mi East 4.6 mph - 0.07 in Rain Rain
10:36 PM 62.2 °F - 61.2 °F 96% 29.76 in 10.0 mi East 4.6 mph - 0.07 in Rain Rain
10:55 PM 62.1 °F - 61.2 °F 97% 29.74 in 10.0 mi East 4.6 mph - 0.11 in Rain Rain
10:59 PM 61.9 °F - 61.2 °F 97% 29.74 in 10.0 mi East 4.6 mph - 0.11 in Rain Rain
11:16 PM 61.9 °F - 61.2 °F 97% 29.74 in 10.0 mi ENE 4.6 mph - 0.01 in Rain , Thunderstorm Light Thunderstorms and Rain
11:36 PM 61.9 °F - 61.3 °F 98% 29.72 in 10.0 mi NNE 6.9 mph - 0.02 in Rain Light Rain
11:55 PM 62.1 °F - 61.5 °F 98% 29.71 in 10.0 mi NE 8.1 mph - 0.02 in   Clear